This demonstration page uses our WeatherBlox Daily Observations layout. Learn more.

38.88101, -77.10428

Hourly Observations for March 24, 2016

Temp ( °F °C ) Dew Point ( °F °C ) Humidity (%) Winds ( mph kmh ) Pressure ( in mb ) Visibility ( mi km ) Precip ( " mm )
12:52 am 00:52 Mostly Clear 61 16.1 35 1.7 38 38 SSW 13 20 30 1016 10 16.09344 0 0
1:52 am 01:52 Clear 59 15 35 1.7 41 41 SSW 9 15 30 1016 10 16.09344 0 0
2:52 am 02:52 Mostly Clear 57 13.9 38 3.3 49 49 SSW 6 9 29.97 1015 10 16.09344 0 0
3:52 am 03:52 Partly Cloudy 59 15 36 2.2 42 42 Calm 29.97 1015 10 16.09344 0 0
4:52 am 04:52 Partly Cloudy 54 12.2 39 3.9 57 57 Calm 30 1016 10 16.09344 0 0
5:52 am 05:52 Mostly Cloudy 50 10 43 6.1 77 77 S 8 13 30 1016 10 16.09344 0 0
6:52 am 06:52 Partly Cloudy 56 13.3 38 3.3 51 51 SW 7 11 30.03 1017 10 16.09344 0 0
7:52 am 07:52 Mostly Cloudy 53 11.7 39 3.9 59 59 SW 5 7 30.03 1017 10 16.09344 0 0
8:52 am 08:52 Partly Cloudy 58 14.4 42 5.6 56 56 S 7 11 30.03 1017 10 16.09344 0 0
9:52 am 09:52 Mostly Cloudy 60 15.6 44 6.7 56 56 S 10 17 30.03 1017 10 16.09344 0 0
10:52 am 10:52 Mostly Cloudy 63 17.2 45 7.2 52 52 SSE 13 20 30.03 1017 10 16.09344 0 0
11:52 am 11:52 Cloudy 67 19.4 44 6.7 44 44 SSE 12 19 29.97 1015 10 16.09344 0 0
12:52 pm 12:52 Cloudy 69 20.6 45 7.2 42 42 S 12 19 29.97 1015 10 16.09344 0 0
1:52 pm 13:52 Cloudy 72 22.2 46 7.8 40 40 S 12 19 29.91 1013 10 16.09344 0 0
2:52 pm 14:52 Cloudy 76 24.4 45 7.2 33 33 S 13 20 29.88 1012 10 16.09344 0 0
3:52 pm 15:52 Cloudy 77 25 44 6.7 31 31 SSW 20 31 29.83 1010 10 16.09344 0 0
4:52 pm 16:52 Mostly Cloudy 77 25 47 8.3 35 35 S 22 35 29.8 1009 10 16.09344 0 0
5:52 pm 17:52 Mostly Cloudy 74 23.3 48 8.9 40 40 S 18 30 29.77 1008 10 16.09344 0 0
6:52 pm 18:52 Mostly Cloudy 71 21.7 48 8.9 44 44 S 16 26 29.77 1008 10 16.09344 0 0
7:39 pm 19:39 Partly Cloudy 69 20.6 48 8.9 47 47 S 13 20 29.77 1008 10 16.09344 0 0
7:52 pm 19:52 Mostly Clear 68 20 49 9.4 51 51 S 12 19 29.77 1008 10 16.09344 0 0
8:52 pm 20:52 Clear 65 18.3 50 10 59 59 S 14 22 29.77 1008 10 16.09344 0 0
9:52 pm 21:52 Clear 66 18.9 49 9.4 54 54 S 15 24 29.77 1008 10 16.09344 0 0
10:52 pm 22:52 Partly Cloudy 67 19.4 49 9.4 53 53 S 17 28 29.77 1008 10 16.09344 0 0
11:52 pm 23:52 Partly Cloudy 67 19.4 49 9.4 53 53 S 17 28 29.74 1007 10 16.09344 0 0

Powered by AerisWeather